www.pogodaiklimat.ru

Погода и климат >> Архив погоды >> Пакистан >> Сахивал


ПОГОДА в Сахивале

  • Прогноз погоды в Сахивале
  • Монитор погоды в Сахивале

АРХИВ ПОГОДЫ в Сахивале

Время (UTC), дата Ветер
(напр.,м/с)
 
Видим.   Явления Облачность Т
(С)
Тd
(С)
f
(%)
Тe
(С)
Тes
(С)
Комфортность P
(гПа)
Po
(гПа)
Тmin
(С)
Tmax
(С)
R
(мм)
R24
(мм)
S
(см)
15 15.07 штиль 0 4000 м дым 8/4 1200 м
[Sc As op]
+34.0 +25.7 62 +49 +49 опасность
перегрева
993.4 974.9
18 15.07 СВ 2 4000 м дым 8/4 1200 м
[Sc As op]
+31.0 +23.9 66 +43 +43 опасность
перегрева
994.5 975.8
21 15.07 СВ 2 4000 м дым 4/0 1000 м
[Ac trans]
+29.0 +23.2 71 +39 +39 очень
душно
994.3 975.5
00 16.07 ЮВ 2 4000 м дым 4/0
[Ac trans]
+28.0 +23.7 77 +38 +38 очень
душно
994.9 975.9
03 16.07 ЮВ 2 4000 м дым 4/0
[Ac trans]
+30.0 +24.3 72 +42 +47 опасность
перегрева
996.1 977.3 +27.0
06 16.07 ЮВ 7 1000 м пыльный позёмок 9/4 1200 м
[Sc Ac As]
+29.0 +23.2 71 +39 +40 очень
душно
999.4 980.4
09 16.07 ЮВ 9 1000 м пыльный позёмок 9/3 1200 м
[Sc Ac As]
+32.0 +25.0 67 +46 +46 опасность
перегрева
998.6 979.9
12 16.07 ЮВ 2 4000 м дым 9/5 1200 м
[Sc As op]
+32.0 +25.0 67 +46 +46 опасность
перегрева
998.1 979.3 +33.0
15 16.07 ЮВ 2 4000 м дым 9/5 1200 м
[Sc As op]
+30.0 +23.5 68 +41 +41 опасность
перегрева
998.7 979.9
18 16.07 СВ 1 4000 м дым 8/4 1200 м
[Sc Ac As]
+28.0 +22.1 70 +36 +36 очень
душно
1000.4 981.4
21 16.07 ЮВ 1 4000 м дым 8/4 1200 м
[Sc Ac As]
+26.0 +19.9 69 +32 +32 очень
душно
999.9 980.8
00 17.07 ЮВ 1 4000 м дым 8/4 1200 м
[Sc Ac As]
+26.0 +21.5 76 +33 +33 очень
душно
1000.0 980.8
06 17.07 штиль 0 4000 м дым ясно +33.0 +24.6 61 +46 +73 опасность
перегрева
1000.9 982.3
09 17.07 СВ 2 4000 м дым 4/4 1200 м
[Sc]
+35.5 +25.9 58 +51 +62 опасность
перегрева
998.9 980.4
12 17.07 СВ 2 4000 м дым 4/4 1200 м
[Sc]
+35.0 +26.1 60 +51 +53 опасность
перегрева
996.8 977.8 +36.4
15 17.07 СВ 2 4000 м дым ясно +33.0 +26.1 67 +49 +49 опасность
перегрева
997.5 978.9
18 17.07 СВ 2 4000 м дым ясно +30.0 +25.8 78 +45 +45 опасность
перегрева
999.3 980.1
21 17.07 СВ 2 4000 м дым ясно +27.0 +22.6 77 +36 +36 очень
душно
999.8 980.7
00 18.07 СВ 2 2000 м дымка ясно +26.5 +22.9 81 +35 +35 очень
душно
999.3 979.9
03 18.07 СВ 1 2000 м дым ясно +30.0 +25.1 75 +43 +51 опасность
перегрева
1000.3 981.1 +25.5
06 18.07 ЮВ 3 4000 м дым ясно +35.0 +26.1 60 +51 +67 опасность
перегрева
998.9 979.9
09 18.07 СВ 3 4000 м дым 5/5 1200 м
[Sc]
+37.0 +26.0 53 +52 +59 опасность
перегрева
997.8 979.4
12 18.07 ЮЗ 21 1000 м сильная пыльная буря {туман} 10/5 1200 м
[Sc Ac As]
+29.0 +21.6 64 +37 +37 очень
душно
998.3 978.9 +37.4
15 18.07 ЮЗ 1 4000 м слаб. дождь 10/5 1200 м
[Sc Ac As]
+25.0 +23.5 91 +34 +34 очень
душно
998.5 979.3 6
18 18.07 СВ 1 4000 м 10/5 1200 м
[Sc Ac As]
+26.5 +25.1 92 +38 +38 очень
душно
999.2 979.6
21 18.07 СВ 1 4000 м 10/5 1200 м
[Sc Ac As]
+25.0 +23.5 91 +34 +34 очень
душно
998.5 979.3
00 19.07 штиль 0 4000 м 4/0
[Ac trans]
+24.5 +23.8 96 +33 +33 очень
душно
999.1 979.5
03 19.07 штиль 0 2000 м дым ясно +30.0 +22.6 65 +40 +49 очень
душно
1000.4 981.2 +25.0
06 19.07 ЮВ 1 4000 м дым 4/4 1200 м
[Sc]
+33.0 +26.8 70 +51 +65 опасность
перегрева
1000.7 981.7
09 19.07 СВ 4 4000 м гроза, ливневой дождь {морось} 10/6 900 м
[Cb calv As op]
+31.0 +23.9 66 +43 +43 опасность
перегрева
1000.2 981.4 0.0
12 19.07 СВ 2 4000 м дым {гроза} 4/0
[Ac As]
+28.0 +25.9 88 +42 +44 опасность
перегрева
999.5 980.5 +36.0 35
15 19.07 штиль 0 4000 м дым 6/3 1200 м
[Sc Ac As]
+29.0 +25.5 81 +43 +43 опасность
перегрева
998.9 980.0
18 19.07 штиль 0 4000 м дым ясно +28.0 +25.2 85 +41 +41 опасность
перегрева
1000.9 981.9
21 19.07 штиль 0 4000 м дым ясно +26.5 +23.6 84 +36 +36 очень
душно
1000.8 981.7
00 20.07 СВ 2 4000 м дым ясно +26.0 +23.8 88 +36 +36 очень
душно
1001.3 982.1
03 20.07 СВ 3 4000 м дым 3/0
[Ac trans]
+28.5 +25.7 85 +42 +47 опасность
перегрева
1002.7 983.7 +25.5
06 20.07 В 3 4000 м дым 4/4 1200 м
[Sc diur, vesp]
+33.0 +26.8 70 +51 +60 опасность
перегрева
1002.0 983.4
09 20.07 штиль 0 4000 м дым 4/4 1200 м
[Sc diur, vesp]
+34.5 +25.5 60 +49 +64 опасность
перегрева
1001.3 982.7
12 20.07 штиль 0 4000 м дым 4/4 1200 м
[Sc diur, vesp]
+36.0 +24.9 53 +49 +52 опасность
перегрева
998.2 979.8 +36.5
15 20.07 штиль 0 4000 м дым ясно +34.0 +26.5 65 +51 +51 опасность
перегрева
998.8 980.2
18 20.07 СВ 2 4000 м дым 3/0
[Ac As]
+31.0 +26.9 79 +48 +48 опасность
перегрева
1000.2 981.2
21 20.07 СВ 2 4000 м дым ясно +29.5 +26.0 81 +44 +44 опасность
перегрева
999.5 980.6
00 21.07 СВ 2 4000 м дым 4/0
[Ac As]
+28.5 +25.7 85 +42 +42 опасность
перегрева
1000.5 981.5
03 21.07 СВ 2 4000 м дым 4/0
[Ac As]
+29.5 +26.7 85 +46 +51 опасность
перегрева
1001.5 982.5 +27.5
06 21.07 В 2 4000 м дым 6/3 1200 м
[Sc diur, vesp Ac As]
+33.5 +28.1 73 +54 +64 опасность
перегрева
1001.8 983.2
09 21.07 В 2 4000 м дым 6/3 1200 м
[Sc diur, vesp Ac As]
+36.0 +27.2 61 +55 +63 опасность
перегрева
1000.5 982.0
12 21.07 ЮВ 2 4000 м дым 6/3 1200 м
[Sc diur, vesp Ac As]
+36.0 +27.2 61 +55 +56 опасность
перегрева
997.5 979.1 +36.2
15 21.07 штиль 0 4000 м дым 8/4 1200 м
[Sc As op]
+34.0 +25.7 62 +49 +49 опасность
перегрева
999.0 980.4
18 21.07 штиль 0 4000 м дым ясно +31.0 +24.6 69 +44 +44 опасность
перегрева
1000.3 981.5
21 21.07 штиль 0 4000 м дым ясно +30.0 +24.3 72 +42 +42 опасность
перегрева
999.5 980.6
00 22.07 штиль 0 4000 м дым 8/4 1200 м
[Sc As op]
+29.0 +24.0 74 +40 +40 очень
душно
1000.3 981.3
03 22.07 ЮВ 1 4000 м дым ясно +31.0 +25.4 72 +45 +53 опасность
перегрева
1000.8 982.0 +28.0
06 22.07 штиль 0 4000 м дым 8/4 1200 м
[Sc As op]
+34.0 +26.5 65 +51 +58 опасность
перегрева
1001.2 982.6
09 22.07 ЮВ 1 4000 м дым 8/4 1200 м
[Sc As op]
+34.0 +26.5 65 +51 +57 опасность
перегрева
999.5 980.9
12 22.07 ЮВ 1 4000 м дым 8/4 1200 м
[Sc As op]
+35.0 +26.8 63 +53 +54 опасность
перегрева
997.5 978.9 +35.6

 

Местоположение метеостанции Сахивал (Пакистан): широта 30.66 долгота 73.02 высота над уровнем моря 169 м.

В архиве по умолчанию представлена погода в Сахивале за последнюю неделю. Архивные данные за месяц целиком и за предыдущие месяцы, начиная с января 2011 года, Вы можете получить, выбрав интересующий диапазон дат из раскрывающегося списка и нажав кнопку "Ввод!".


*Определитесь, кто Вы:
робот инопланетянин человек

Внимание! Время в таблицах - всемирное. Для получения местного времени необходимо прибавить поправку, которая равна 5 ч.

Смотрите также архив погоды в соседних городах и на ближайших метеорологических станциях:

Погода в Окаре (Пакистан) (42 км)
Погода в Тоба Тек Сингх (Пакистан) (63 км)
Погода на Авиабазе Raifiqui (Пакистан) (80 км)
Погода в Бахавалнагаре (Пакистан) (82 км)
Погода в Фейсалабаде (Пакистан) (86 км)
Погода в Джанге (Пакистан) (95 км)
Погода в Ханевале (Пакистан) (115 км)
Погода в Шри-Ганганагаре (Раджастхан, Индия) (117 км)
Погода в Касуре (Пакистан) (147 км)
Погода в Саргодхе (Пакистан) (158 км)

Пояснения к столбцам:

Ветер - указаны скорость ветра в м/с - средняя за 10 мин, порывы в срок и между сроками (в фигурных скобках) и направление, откуда дует ветер: С - северный, СВ - северо-восточный, В - восточный, ЮВ - юго-восточный, Ю - южный, ЮЗ - юго-западный, З - западный, СЗ - северо-западный.
Видимость - горизонтальная дальность видимости в метрах или километрах. При видимости от 1 до 10 км при отсутствии осадков обычно наблюдается дымка, при ухудшении видимости до 1 км и менее - туман. В сухую погоду видимость может ухудшаться дымом, пылью или мглою.
Явления - указаны атмосферные явления, наблюдавшиеся в срок или в последний час перед сроком; фигурными скобками обозначены явления, наблюдавшиеся между сроками (за 1-3 часа до срока); квадратными скобками обозначены град или гололедные отложения с указанием их диаметра в мм.
Облачность - указаны через наклонную черту общая и нижняя облачность в баллах и высота нижней границы облаков в метрах; квадратными скобками обозначены формы облаков: Ci - перистые, Cs - перисто-слоистые, Cc - перисто-кучевые, Ac - высококучевые, As - высокослоистые, Sc - слоисто-кучевые, Ns - слоисто-дождевые, Cu - кучевые, Cb - кучево-дождевые. Подробнее классификацию облаков см. в Атласе облаков (PDF).
T - Температура воздуха - температура, измеренная на высоте 2 м над землей.
Td - Температура точки росы - температура, при понижении до которой содержащийся в воздухе водяной пар достигнет насыщения.
f - Относительная влажность воздуха - влажноcть воздуха, измеренная на высоте 2 м над землей.
Te - Эффективная температура - температура, которую ощущает одетый по сезону человек в тени. Характеристика душности погоды. При расчете учитывается влияние влажности воздуха и скорости ветра на теплоощущения человека.
Tes - Эффективная температура на солнце - температура, которую ощущает человек, с поправкой на солнечный нагрев. Характеристика знойности погоды. Зависит от высоты солнца над горизонтом, облачности и скорости ветра. Ночью, в пасмурную погоду, а также при ветре 12 м/с и более поправка равна нулю.
P - Атмосферное давление - приведенное к уровню моря атмосферное давление.
Po - Атмосферное давление - измеренное на уровне метеостанции атмосферное давление.
Tmin - Минимальная температура - минимум температуры воздуха на высоте 2 м над землей.
Tmax - Максимальная температура - максимум температуры воздуха на высоте 2 м над землей.
R - Количество осадков - Количество выпавших осадков за период времени, мм. При наведении курсора мыши на число - период времени, за который выпало указанное количество осадков.
R24 - Количество осадков - Количество выпавших осадков за 24 часа, мм.
S - Снежный покров - Высота снежного покрова, см. При наведении курсора мыши на число - состояние снежного покрова и степень покрытия местности в баллах.